Regional Weather Roundup
Issued by NWS

Home | Current Version | Previous Version | Graphics & Text | Print | Product List | Glossary On
Versions: 1 2 3 4 5 6 7 8 9 10 11 12 13 14 15 16 17 18 19 20 21 22 23 24 25 26 27 28 29 30 31 32 33 34 35 36 37 38 39 40 41 42 43 44 45 46 47 48 49 50
769
ASUS43 KIND 200309
RWRIN

WEATHER ROUNDUP FOR INDIANA
NATIONAL WEATHER SERVICE INDIANAPOLIS IN
1000 PM EST THU JAN 19 2017

NOTE: "FAIR" INDICATES FEW OR NO CLOUDS BELOW 12,000 FEET WITH NO
SIGNIFICANT WEATHER AND/OR OBSTRUCTIONS TO VISIBILITY.

* - STATION DOES NOT REPORT WEATHER SUCH AS PRECIPITATION OR FOG.

+ - STATION NOT QUALITY CONTROLLED BY THE NATIONAL WEATHER SERVICE.
    USE DATA WITH CAUTION...ESPECIALLY DEWPOINT AND RELATIVE
    HUMIDITY OBSERVATIONS.

INZ001>003-010>013-019-020-200400-
NORTHWEST INDIANA

CITY           SKY/WX    TMP DP  RH WIND       PRES   REMARKS
GARY /AIRPORT/ LGT RAIN  39  37  93 E7        29.79F
KNOX *+        CLOUDY    37  28  70 E8        29.78F
LA PORTE +     RAIN      37  37  97 E10       29.79F
MICHIGAN CITY+ LGT RAIN  37  37 100 E3        29.79F
MONTICELLO +   RAIN      40  39  95 E9        29.75F
RENSSELAER +   DRIZZLE   41  41 100 E8        29.75F
VALPARAISO     LGT RAIN  39  38  96 E8        29.78F FOG

$$

LMZ046-743>745-200400-
SOUTHERN LAKE MICHIGAN

STATION/POSITION TIME  TEMP    WIND        PRES    WAVE
                       AIR SEA DIR/SP/G            HT
                 (UTC) (F)     (DEG/KT/KT) (MB)    (FT)
BURNS HARBOR     0200   39      90/  8/ 15 1010.2
MICHIGAN CITY    0240   39      80/  7/  8   N/A

$$

INZ004-005-014>016-021>024-200400-
NORTH CENTRAL INDIANA

CITY           SKY/WX    TMP DP  RH WIND       PRES   REMARKS
GOSHEN         LGT RAIN  37  34  89 E5        29.83F FOG
LOGANSPORT +   LGT RAIN  39  37  93 E13       29.78F
PERU/GRISSOM   LGT RAIN  41  41 100 E12       29.75F FOG
ROCHESTER +    LGT RAIN  41  41 100 E12       29.80F
SOUTH BEND     LGT RAIN  37  35  92 E10       29.82F FOG
WARSAW +       RAIN      37  34  87 E6        29.82F

$$

INZ006>009-017-018-025>027-200400-
NORTHEAST INDIANA

CITY           SKY/WX    TMP DP  RH WIND       PRES   REMARKS
ANGOLA *+      MOCLDY    36  36 100 E8        29.84F
AUBURN +       CLOUDY    36  34  93 E6        29.85F FOG
FORT WAYNE     CLOUDY    41  36  82 E8        29.83F
HUNTINGTON +   RAIN      39  38  95 E7        29.82F
KENDALLVILLE + CLOUDY    37  36  96 E6        29.84F FOG

$$

INZ028-029-035-036-043>045-051>053-200400-
WEST CENTRAL INDIANA

CITY           SKY/WX    TMP DP  RH WIND       PRES   REMARKS
CRAWFORDSVL +  LGT SNOW  41  41 100 E9        29.73F
GREENCASTLE +  LGT RAIN  43  43 100 SE10      29.73F
LAFAYETTE      LGT RAIN  42  41  96 E12       29.74F FOG
TERRE HAUTE    LGT RAIN  45  43  93 SE9       29.71F

$$

INZ030>032-037>040-046>048-054>057-064-065-200400-
CENTRAL INDIANA

CITY           SKY/WX    TMP DP  RH WIND       PRES   REMARKS
CP ATTERBURY + RAIN      45  43  93 E5        29.76F
COLUMBUS       LGT RAIN  45  45 100 E7        29.76F
FISHERS *+     CLOUDY    41  41 100 E5        29.76F
FRANKFORT +    LGT RAIN  44  43  95 SE14      29.76F
GREENWOOD *+   CLOUDY    45  45 100 E8        29.76F
INDIANAPOLIS   LGT RAIN  44  42  93 E12       29.75F FOG
-EAGLE CREEK   LGT RAIN  44  42  93 E9        29.75F FOG
KOKOMO +       RAIN      40  40 100 E14       29.77F FOG
MARION +       LGT RAIN  41  39  93 E12G17    29.79F
MT COMFORT *+  CLOUDY    43  43 100 E8        29.76F
SHELBYVILLE    LGT RAIN  45  42  89 E9        29.75F FOG
ZIONSVILLE +   LGT RAIN  41  41  97 E9G16     29.76F

$$

INZ033-034-041-042-049-050-058-059-200400-
EAST CENTRAL INDIANA

CITY           SKY/WX    TMP DP  RH WIND       PRES   REMARKS
MUNCIE         LGT RAIN  44  41  89 E13       29.79F FOG

$$

INZ060-061-067>069-081>083-085>088-200400-
SOUTHWEST INDIANA

CITY           SKY/WX    TMP DP  RH WIND       PRES   REMARKS
EVANSVILLE     LGT RAIN  53  51  93 SE5       29.69F VSB 1
HUNTINGBURG *+ CLOUDY    52  50  93 SE6       29.71F
WASHINGTON +   LGT RAIN N/A N/A N/A SE7       29.70F

$$

INZ062-063-066-070>080-084-089>092-200400-
SOUTH CENTRAL AND SOUTHEAST INDIANA

CITY           SKY/WX    TMP DP  RH WIND       PRES   REMARKS
BLOOMINGTON    RAIN      46  44  93 SE8       29.72F FOG
MADISON *+     CLOUDY    46  45  93 E7        29.77F
NORTH VERNON + RAIN     N/A N/A N/A E9        29.76F
SEYMOUR +      LGT RAIN  48  46  93 E5        29.74F

$$





USA.gov is the U.S. government's official web portal to all federal, state and local government web resources and services.